Weather History for Hurlburt Field, FL

Change the Weather History Date:

Wednesday, November 27, 2013

  Actual Average Record
Temperature  
Mean Temperature 40 °F -  
Max Temperature 48 °F 65 °F 77 °F (2001)
Min Temperature 32 °F 46 °F 32 °F (2013)
Degree Days  
Heating Degree Days 24    
Moisture  
Dew Point 34 °F    
Average Humidity 70    
Maximum Humidity 87    
Minimum Humidity 39    
Precipitation  
Precipitation 0.01 in - - ()
Sea Level Pressure  
Sea Level Pressure 30.02 in    
Wind  
Wind Speed 16 mph (NNW)    
Max Wind Speed 29 mph    
Max Gust Speed 39 mph    
Visibility 10 miles    
Events Rain    
Averages and records for this station are not official NWS values.
T = Trace of Precipitation, MM = Missing Value Source: NWS Daily Summary

Daily Weather History Graph

Daily Weather History Graph

Search for Another Location

Airport:

Trip Planner

Search our weather history database for the weather conditions in past years. The results will help you decide how hot, cold, wet, or windy it might be!

Date:

Astronomy

Nov. 27, 2013 Rise Set
Actual Time 6:22 AM CST 4:45 PM CST
Civil Twilight 5:56 AM CST 5:11 PM CST
Nautical Twilight 5:27 AM CST 5:41 PM CST
Astronomical Twilight 4:58 AM CST 6:10 PM CST
Moon 12:47 AM CST (11/27) 1:02 PM CST (11/27)
Length of Visible Light 11h 15m
Length of Day
10h 23m
Waning Crescent, 31% of the Moon is Illuminated
Nov 27
Waning Crescent
Dec 2
New
Dec 9
First Quarter
Dec 17
Full
Dec 25
Last Quarter

Hourly Weather History & Observations

Time (CST) Temp. Windchill Dew Point Humidity Pressure Visibility Wind Dir Wind Speed Gust Speed Precip Events Conditions
12:03 AM 46.4 °F 40.4 °F 42.8 °F 87% 29.84 in 9.0 mi NW 13.8 mph 21.9 mph N/A Rain Light Rain
12:08 AM 46.4 °F 39.8 °F 42.8 °F 87% 29.84 in 9.0 mi NNW 16.1 mph 21.9 mph N/A Rain Light Rain
12:13 AM 46.4 °F 39.8 °F 41.0 °F 81% 29.84 in 10.0 mi NW 16.1 mph 23.0 mph N/A Rain Light Rain
12:33 AM 44.6 °F 38.8 °F 41.0 °F 87% 29.85 in 10.0 mi NW 11.5 mph 21.9 mph N/A   Overcast
12:48 AM 44.6 °F 37.8 °F 41.0 °F 87% 29.86 in 10.0 mi NNW 15.0 mph 23.0 mph N/A   Overcast
12:58 AM 45.1 °F 38.4 °F 41.2 °F 86% 29.88 in 10.0 mi NNW 15.0 mph 21.9 mph 0.00 in   Overcast
1:23 AM 44.6 °F 38.4 °F 41.0 °F 87% 29.87 in 10.0 mi NW 12.7 mph - N/A   Overcast
1:28 AM 44.6 °F 37.8 °F 41.0 °F 87% 29.87 in 10.0 mi NNW 15.0 mph 18.4 mph N/A   Overcast
1:42 AM 44.6 °F 38.8 °F 41.0 °F 87% 29.86 in 10.0 mi NNW 11.5 mph - N/A Rain Light Rain
1:52 AM 44.6 °F 38.8 °F 41.0 °F 87% 29.87 in 10.0 mi NNW 11.5 mph - N/A Rain Light Rain
1:56 AM 44.6 °F 38.4 °F 41.0 °F 87% 29.88 in 10.0 mi NNW 12.7 mph - N/A   Overcast
1:58 AM 44.6 °F 38.1 °F 41.0 °F 87% 29.89 in 10.0 mi NNW 13.8 mph 20.7 mph 0.00 in   Overcast
2:03 AM 44.6 °F 37.8 °F 41.0 °F 87% 29.88 in 10.0 mi NNW 15.0 mph 20.7 mph N/A   Overcast
2:07 AM 44.6 °F 38.1 °F 41.0 °F 87% 29.88 in 10.0 mi NNW 13.8 mph 20.7 mph N/A Rain Light Rain
2:33 AM 44.6 °F 37.8 °F 41.0 °F 87% 29.89 in 10.0 mi NW 15.0 mph 20.7 mph N/A   Overcast
2:39 AM 44.6 °F 37.4 °F 41.0 °F 87% 29.89 in 10.0 mi NNW 16.1 mph 23.0 mph N/A Rain Light Rain
2:58 AM 44.2 °F 37.0 °F 40.1 °F 85% 29.91 in 10.0 mi NW 16.1 mph 21.9 mph 0.00 in Rain Light Rain
3:21 AM 44.6 °F 37.4 °F 39.2 °F 81% 29.90 in 10.0 mi NNW 16.1 mph 27.6 mph N/A   Overcast
3:36 AM 44.6 °F 37.8 °F 39.2 °F 81% 29.90 in 10.0 mi NNW 15.0 mph - N/A   Overcast
3:41 AM 44.6 °F 36.6 °F 39.2 °F 81% 29.90 in 10.0 mi NNW 19.6 mph 23.0 mph N/A   Overcast
3:56 AM 42.8 °F 32.9 °F 39.2 °F 87% 29.90 in 10.0 mi NNW 26.5 mph 35.7 mph N/A   Overcast
3:58 AM 43.2 °F 34.0 °F 39.0 °F 85% 29.91 in 10.0 mi NNW 23.0 mph 35.7 mph 0.01 in   Overcast
4:08 AM 42.8 °F 34.3 °F 39.2 °F 87% 29.90 in 10.0 mi NNW 19.6 mph 31.1 mph N/A   Overcast
4:58 AM 42.4 °F 32.4 °F 36.9 °F 81% 29.94 in 10.0 mi NNW 26.5 mph 32.2 mph N/A   Overcast
5:28 AM 41.0 °F 30.5 °F 32.0 °F 70% 29.94 in 10.0 mi NNW 26.5 mph 39.1 mph N/A   Overcast
5:38 AM 41.0 °F 30.0 °F 32.0 °F 70% 29.95 in 10.0 mi NNW 28.8 mph 35.7 mph N/A   Overcast
5:58 AM 40.6 °F 30.7 °F 33.1 °F 74% 29.98 in 10.0 mi NNW 23.0 mph 35.7 mph N/A   Overcast
6:58 AM 39.9 °F 30.8 °F 31.6 °F 72% 30.02 in 10.0 mi North 18.4 mph 34.5 mph N/A   Mostly Cloudy
7:58 AM 40.3 °F 31.9 °F 31.6 °F 71% 30.06 in 10.0 mi NNW 16.1 mph 25.3 mph N/A   Overcast
8:58 AM 42.6 °F 33.5 °F 30.2 °F 61% 30.09 in 10.0 mi North 21.9 mph 28.8 mph N/A   Mostly Cloudy
9:13 AM 42.8 °F 33.5 °F 30.2 °F 61% 30.09 in 10.0 mi North 23.0 mph 29.9 mph N/A   Scattered Clouds
9:28 AM 42.8 °F 33.3 °F 30.2 °F 61% 30.09 in 10.0 mi North 24.2 mph 31.1 mph N/A   Mostly Cloudy
9:43 AM 42.8 °F 34.0 °F 28.4 °F 57% 30.10 in 10.0 mi North 20.7 mph 29.9 mph N/A   Scattered Clouds
9:58 AM 43.7 °F 35.0 °F 30.0 °F 59% 30.11 in 10.0 mi North 21.9 mph 28.8 mph N/A   Scattered Clouds
10:58 AM 44.4 °F 36.1 °F 28.4 °F 53% 30.11 in 10.0 mi North 20.7 mph 28.8 mph N/A   Partly Cloudy
11:29 AM 46.4 °F 39.8 °F 28.4 °F 50% 30.10 in 10.0 mi NW 16.1 mph 25.3 mph N/A   Clear
11:58 AM 47.1 °F - 28.2 °F 48% 30.10 in 10.0 mi NNW 13.8 mph - N/A   Clear
12:10 PM 48.2 °F - 28.4 °F 46% 30.09 in 10.0 mi North 16.1 mph 21.9 mph N/A   Clear
12:58 PM 48.4 °F - 25.9 °F 42% 30.09 in 10.0 mi NW 16.1 mph 23.0 mph N/A   Clear
1:42 PM 48.2 °F - 26.6 °F 43% 30.09 in 10.0 mi NW 11.5 mph 24.2 mph N/A   Clear
1:58 PM 48.9 °F - 27.0 °F 43% 30.11 in 10.0 mi North 16.1 mph 20.7 mph N/A   Clear
2:58 PM 48.7 °F - 24.4 °F 39% 30.13 in 10.0 mi North 17.3 mph 25.3 mph N/A   Clear
3:58 PM 47.3 °F - 25.3 °F 42% 30.15 in 10.0 mi NNW 12.7 mph - N/A   Clear
4:58 PM 43.7 °F 37.7 °F 25.3 °F 48% 30.18 in 10.0 mi North 11.5 mph - N/A   Clear
5:58 PM 41.9 °F 35.4 °F 23.0 °F 47% 30.23 in 10.0 mi North 11.5 mph - N/A   Clear
6:58 PM 39.9 °F 34.5 °F 24.4 °F 54% 30.27 in 10.0 mi NNW 8.1 mph - N/A   Clear
7:58 PM 38.5 °F 33.4 °F 25.2 °F 59% 30.31 in 10.0 mi NW 6.9 mph - N/A   Clear
8:58 PM 36.9 °F 31.4 °F 25.5 °F 64% 30.33 in 10.0 mi NNW 6.9 mph - N/A   Clear
9:58 PM 35.6 °F 28.0 °F 23.9 °F 62% 30.35 in 10.0 mi NNW 10.4 mph - N/A   Clear
10:58 PM 33.4 °F 25.4 °F 23.4 °F 67% 30.35 in 10.0 mi North 10.4 mph - N/A   Clear
11:58 PM 32.2 °F 23.8 °F 22.8 °F 68% 30.35 in 10.0 mi North 10.4 mph - N/A   Clear